APSTAR 6C (43450 NORAD) Tracking and Keplerian Element Data

This shows tracking and keplerian element data for the satellite.

Feedback or suggestion? Click here.




ElementValue
Catalog43450
NameAPSTAR 6C
Epoch Orbit1246
Epoch Day260.72202241
Epoch Year2021
RAAN246.1016
Inclination0.0209
Eccentricity0.0002627
Argument of Perigee312.6586
Mean Anonmoly192.0112
Mean Motion1.00270433
Decay Rate-3.42E-06
L11 43450U 18041A 21260.72202241 -.00000342 00000-0 00000+0 0 9990
L22 43450 0.0209 246.1016 0002627 312.6586 192.0112 1.00270433 12466

Live tracking and technical data element details for APSTAR 6C (NORAD 43450). APSTAR 6C can be tracked NOW for your location showing map with azimuth and elevation plus other details from your city location.

Track the satellite on the map from your city or location and see movement details for azimuth, elevation, latitude, longitude, range, height, and movement on the map or in text.







IsCatalogInMostPopularTable: catalog: 43450, numindb: 522
Update: records affected: 1



GetName: 43450 APSTAR 6C

Hit Count: updated at: Sun, 26 Sep 2021 01:18:51 GMT